Regional Weather Roundup
Issued by NWS

Home | Current Version | Previous Version | Graphics & Text | Print | Product List | Glossary On
Versions: 1 2 3 4 5 6 7 8 9 10 11 12 13 14 15 16 17 18 19 20 21 22 23 24 25 26 27 28 29 30 31 32 33 34 35 36 37 38 39 40 41 42 43 44 45 46 47 48 49 50
000
ASUS43 KFSD 010110
RWRSD

WEATHER ROUNDUP FOR SOUTH DAKOTA
NATIONAL WEATHER SERVICE SIOUX FALLS SD
700 PM CST SAT FEB 28 2015

NOTE: "FAIR" INDICATES FEW OR NO CLOUDS BELOW 12,000 FEET WITH NO
SIGNIFICANT WEATHER AND/OR OBSTRUCTIONS TO VISIBILITY.


SDZ001>005-009-010-012>017-010200-
NORTHWEST AND NORTH CENTRAL SOUTH DAKOTA

CITY           SKY/WX    TMP DP  RH WIND       PRES   REMARKS
BUFFALO          N/A     17   7  64 W10       30.06R WCI   5
FAITH            N/A     17   4  56 NW10      30.14S WCI   5
MOBRIDGE       CLEAR     13   4  67 N9        30.16R WCI   1
$$

SDZ012>016-024>037-041>051-057-063-072>074-010200-
SOUTHWEST AND SOUTH CENTRAL SOUTH DAKOTA

CITY           SKY/WX    TMP DP  RH WIND       PRES   REMARKS
RAPID CTY ARPT CLEAR     17   9  70 N10       30.11R WCI   5
PIERRE         CLEAR     20   7  57 N7        30.17R WCI  11
CUSTER         PTCLDY    12   8  84 E6        29.95R WCI   3
ELLSWORTH AFB  MOCLDY    19   9  65 N14       30.10R WCI   6
PHILIP         CLEAR     19   1  45 N8        30.17R WCI   9
PINE RIDGE     CLEAR     21   7  54 NE7       30.09R WCI  12
WINNER         FAIR      23   0  36 NW9       30.16R WCI  13
$$

SDZ004>011-016>023-039-040-010200-
NORTHEAST SOUTH DAKOTA

CITY           SKY/WX    TMP DP  RH WIND       PRES   REMARKS
ABERDEEN       MOCLDY    21  13  71 NW8       30.17R WCI  11
WATERTOWN      CLOUDY    21  12  68 S7        30.13S WCI  12
SISSETON         N/A     24  15  68 S8        30.16R WCI  15
$$

SDZ017-020-022-023-036>040-048>070-010200-
SOUTHEAST SOUTH DAKOTA

CITY           SKY/WX    TMP DP  RH WIND       PRES   REMARKS
SIOUX FALLS    CLEAR     23  12  62 S12       30.20F WCI  12
HURON          PTCLDY    22  15  75 NW8       30.17R WCI  12
CHAMBERLAIN    CLEAR     24   6  46 NW7       30.17R WCI  16
MITCHELL       CLOUDY    31  11  43 SW9       30.17R WCI  23
YANKTON        CLEAR     27   9  46 S7        30.24R WCI  19
$$

ABBREVIATIONS USED IN REMARKS
   TC - TEMPERATURE IN CELSIUS
  WCI - WIND CHILL INDEX
   HX - HEAT INDEX
  VSB - VISIBILITY



USA.gov is the U.S. government's official web portal to all federal, state and local government web resources and services.